Погода в Покровке

Россия / Алтайский край     52°45′54″N   80°22′58″E
темп.,
°C
ветер,
м/с
пор.,
м/с
влажн.,
%
обл.,
%
осадки,
мм/ч
давл.,
гПа
погр.,
м
20 июня, вс
вс2001:00+10сз5869100 1.1 1009601
04:00+10сз3770100 0.0 1008420
07:00+10зсз2467100 0.0 1009217
10:00+11з4464100 0.1 1010593
13:00+14з5643100 0.1 10102152
16:00+15зюз564797 0.1 10101672
19:00+16юз674037 0.1 10091893
22:00+12ю5125698 0.0 1008267
21 июня, пн
пн2101:00+13ю91647100 0.0 1005644
04:00+14ю101640100 0.0 10011106
07:00+10ю91789100 2.4 1001614
10:00+14з566971 0.8 1002905
13:00+18зюз574667 0.9 10031942
16:00+16зюз6754100 0.5 10051381
19:00+16з345113 0.6 10051348
22:00+12ссз3372100 0.3 100650
22 июня, вт
вт2201:00+11з5777100 0.3 1006337
04:00+9зсз5891100 0.6 1007420
07:00+9зсз499099 0.8 1008448
10:00+10з4782100 0.8 1009512
13:00+13зюз6763100 1.1 10101380
16:00+14з6765100 0.6 10121258
19:00+14зсз686156 0.9 10121389
22:00+11зюз337175 0.1 101342
23 июня, ср
ср2301:00+11юз356992 0.1 1013133
04:00+10юз4871100 0.0 1012204
07:00+10юз4677100 0.1 1012221
10:00+12ююз557292 0.1 1012834
13:00+13ююв4565100 0.3 1011953
16:00+14юв336688 0.1 10101043
19:00+14в3363100 0.3 1009978
22:00+10юв2289100 0.1 101030
24 июня, чт
чт2401:00+9ююз2291100 0.3 101017
04:00+8зсз339239 0.0 100937
07:00+9ссз369237 0.4 1010192
10:00+14с567273 0.1 1011919
13:00+17ссз665274 0.6 10111706
16:00+16сз6655100 1.1 10111463
19:00+15зсз466199 1.6 1012731
22:00+11зсз487957 0.3 1013172